Meteo Giornale » Osservazioni meteo Messico » Acapulco-G Alvarez
ore: 22:42 - Osservazioni Meteo Acapulco-G Alvarez
Lat. 16° 46' N Lon. 99° 45' W Alt. 5 metri s.l.m.
28 °C
Coperto
Temp. 24 Ore
27 °C
31 °C
Nord
0 Km/h
Dew point 28 °C
Umidità 100 %
Visibilità 8 Km
Il sole sorge alle ore 06:25
Il sole tramonta alle ore 18:53
| Data e Ora | Cielo e Fenomeni | T °C | DP °C | Um. % | Pres. hPa | Vis. km | Vento km/h | |
|---|---|---|---|---|---|---|---|---|
| Oggi h: 22:42 | Coperto | 28 | 28 | 100 | 1013 | 8 | N 0 | |
| Oggi h: 21:51 | Coperto | 29 | 27 | 89 | 1013 | 8 | N 0 | |
| Oggi h: 20:44 | Coperto | 29 | 26 | 83 | 1012 | 8 | N 0 | |
| Oggi h: 19:41 | Molto Nuvoloso | 29 | 25 | 79 | 1011 | 8 | N 0 | |
| Oggi h: 18:43 | Coperto | 29 | 26 | 83 | 1011 | 10 | N 0 | |
| Oggi h: 17:42 | Coperto | 30 | 26 | 79 | 1011 | 10 | N 3.7 | |
| Oggi h: 16:41 | Coperto | 30 | 26 | 79 | 1010 | 10 | E/SE 7.4 | |
| Oggi h: 15:48 | Coperto | 30 | 26 | 79 | 1011 | 10 | N 5.5 | |
| Oggi h: 14:41 | Coperto | 31 | 26 | 74 | 1011 | 10 | S/SE 7.4 | |
| Oggi h: 13:48 | Coperto | 31 | 25 | 70 | 1012 | 10 | E/SE 7.4 | |
| Oggi h: 12:49 | Coperto | 31 | 26 | 74 | 1013 | 11 | N 3.7 | |
| Oggi h: 11:43 | Coperto | 31 | 25 | 70 | 1014 | 11 | N 5.5 | |
| Oggi h: 10:43 | Coperto | 30 | 25 | 74 | 1014 | 10 | N/NO 9.3 | |
| Oggi h: 09:43 | Coperto | 29 | 24 | 74 | 1014 | 10 | N 5.5 | |
| Oggi h: 08:47 | Coperto | 29 | 25 | 79 | 1013 | 10 | N 5.5 | |
| Oggi h: 07:43 | Coperto | 28 | 27 | 94 | 1012 | 10 | N/NE 7.4 | |
| Oggi h: 06:52 | Coperto | 27 | 26 | 94 | 1012 | 10 | N/NO 7.4 | |
| Oggi h: 05:42 | Coperto | 27 | 26 | 94 | 1011 | 8 | N/NO 7.4 | |
| Oggi h: 04:42 | Coperto | 27 | 26 | 94 | 1011 | 8 | NO 7.4 | |
| Oggi h: 03:40 | Coperto | 27 | 26 | 94 | 1012 | 8 | N/NO 7.4 | |
| Oggi h: 02:41 | Coperto | 27 | 26 | 94 | 1012 | 8 | N 9.3 | |
| Oggi h: 01:40 | Coperto | 28 | 26 | 88 | 1012 | 8 | N 5.5 | |
| Oggi h: 00:40 | Coperto | 28 | 27 | 94 | 1014 | 8 | S 7.4 | |
| Ieri h: 23:41 | Coperto | 28 | 26 | 88 | 1014 | 8 | N/NO 7.4 | |



